{"data":{"norad_id":64582,"intl_designator":"2025-135BG","name":"IRIDE-MS2-HEO-4","alt_names":[],"object_type":"PAYLOAD","status":"ACTIVE","operator":null,"country":"IT","launch_date":"2025-06-23","launch_site_code":"AFWTR","launch_vehicle":null,"mission":null,"orbit_class":"UNKNOWN","rcs_meters":null,"size_class":null,"mass_kg":null,"dimensions":null,"purposes":[],"wikipedia_slug":null,"has_3d_model":false,"image_url":null,"decayed_at":null,"tle_current":{"epoch":"2026-05-25T05:54:16.319808Z","epoch_age_seconds":53545,"freshness":"FRESH","line1":"1 64582U 25135BG  26145.24602222  .00001470  00000+0  15100-3 0  9990","line2":"2 64582  97.7701 259.9108 0003122  82.6373 277.5200 14.91886040 50479","mean_motion":14.9188604,"eccentricity":0.0003122,"inclination_deg":97.7701,"raan_deg":259.9108,"arg_perigee_deg":82.6373,"mean_anomaly_deg":277.52,"bstar":0.000151,"rev_number":5047,"period_min":96.522117734944,"perigee_km":589.87890506257,"apogee_km":594.23109294675,"semimajor_km":6970.1919990047,"source":"CELESTRAK","updated_at":"2026-05-25T13:38:04.624737Z"}}}